Regional Weather Roundup
Issued by NWS State College, PA

Home | Current Version | Previous Version | Graphics & Text | Print | Product List | Glossary On
Versions: 1 2 3 4 5 6 7 8 9 10 11 12 13 14 15 16 17 18 19 20 21 22 23 24 25 26 27 28 29 30 31 32 33 34 35 36 37 38 39 40 41 42 43 44 45 46 47 48 49 50
000
ASUS41 KCTP 280910
RWRCTP

REGIONAL WEATHER ROUNDUP
NATIONAL WEATHER SERVICE STATE COLLEGE PA
500 AM EDT MON JUL 28 2014

Note: "fair" indicates few or no clouds below 12,000 feet with no
significant weather and/or obstructions to visibility.

* = STATION THAT DOES NOT REPORT PRECIPITATION /E.G. RAIN...SNOW...ETC/
    THUNDER OR FOG.

PAZ002>004-007>009-013>016-020>023-029>032-281000-
WESTERN PENNSYLVANIA

CITY           SKY/WX    TMP DP  RH WIND       PRES   REMARKS
ERIE           RAIN      64  61  88 SW7       29.61R FOG
MEADVILLE      LGT RAIN  60  59  96 W6        29.65S
FRANKLIN*      CLOUDY    59  55  88 W9        29.66R
NEW CASTLE       N/A     62  61  97 W7        29.68R
BEAVER COUNTY  NOT AVBL
BUTLER*        CLOUDY    63  59  88 W9        29.67S
PITTSBURGH INT MOCLDY    64  61  90 W15       29.67R
PITTSBURGH     CLOUDY    63  60  90 W12G17    29.66R
INDIANA*       CLOUDY    64  63  94 W13G22    29.67S
LATROBE        MOCLDY    64  64 100 W12G18    29.66R
WASHINGTON CO* MOCLDY    64  61  88 W6        29.69S
$$

PAZ004>006-010>012-017>019-024>028-033>037-041-042-045-046-049>053-281000-
CENTRAL PENNSYLVANIA

CITY           SKY/WX    TMP DP  RH WIND       PRES   REMARKS
BRADFORD       CLOUDY    61  60  97 NW3       29.60F
DUBOIS         CLOUDY    62  60  93 W12       29.62R FOG
CLEARFIELD     CLOUDY    63  61  93 W9        29.61R
JOHNSTOWN      LGT RAIN  63  61  93 W16G25    29.64F
ALTOONA        PTCLDY    65  64  97 CALM      29.62R
STATE COLLEGE  CLOUDY    63  62  97 CALM      29.59S
WILLIAMSPORT   CLOUDY    66  63  90 W3        29.55R
SELINSGROVE    MOCLDY    65  64  97 CALM      29.55F
FT INDIANTOWN  CLOUDY    64  64 100 SW2       29.56F FOG
CAPITAL CITY   PTCLDY    64  63  96 CALM      29.56F
HARRISBURG     PTCLDY    67  63  87 VRB3      29.55F
YORK           PTCLDY    64  63  96 CALM      29.56F FOG
$$

PAZ038>040-043-044-047-048-054-055-060>062-067>071-281000-
EASTERN PENNSYLVANIA

CITY           SKY/WX    TMP DP  RH WIND       PRES   REMARKS
SCRANTON       CLOUDY    67  62  84 CALM      29.56F
MOUNT POCONO   CLOUDY    64  61  90 W6        29.58F
ALLENTOWN      CLOUDY    68  65  90 W3        29.54F
QUAKERTOWN*    CLOUDY    68  66  94 SW5       29.56F
READING        CLOUDY    68  65  90 W3        29.55F
LANCASTER      CLOUDY    67  66  97 W7        29.57S
COATESVILLE    PTSUNNY   64  64 100 CALM      29.57F
POTTSTOWN      MOCLDY    67  66  97 SW3       29.56F
BLUE BELL      MOCLDY    68  68 100 CALM      29.54F
DOYLESTOWN     MOCLDY    67  67 100 S5        29.54F
WILLOW GROVE   NOT AVBL
NORTH PHILA    MOCLDY    69  65  86 SW3       29.56F
PHILADELPHIA   MOCLDY    70  66  87 S6        29.56F
$$



USA.gov is the U.S. government's official web portal to all federal, state and local government web resources and services.